Weather History for KPIA - July, 2013

Change the Weather History Date:

Wednesday, July 3, 2013

  Actual Average Record
Temperature  
Mean Temperature 69 °F 76 °F  
Max Temperature 79 °F 86 °F 100 °F (1911)
Min Temperature 59 °F 65 °F 49 °F (1917)
Degree Days  
Heating Degree Days 0 0  
Month to date heating degree days 0 0  
Since 1 June heating degree days 18 18  
Since 1 July heating degree days 0 0  
Cooling Degree Days 4 11  
Month to date cooling degree days 11 31  
Year to date cooling degree days 341 334  
Since 1 June cooling degree days 234 253  
Growing Degree Days 19 (Base 50)    
Moisture  
Dew Point 53 °F    
Average Humidity 58    
Maximum Humidity 80    
Minimum Humidity 35    
Precipitation  
Precipitation 0.00 in 0.12 in 2.12 in (1896)
Month to date precipitation 0.00 0.36  
Year to date precipitation 29.71 18.22  
Snow  
Snow 0.00 in 0.00 in 0.00 in ()
Month to date snowfall 0.0 0.0  
Since 1 June snowfall 0.0 0.0  
Since 1 July snowfall 0.0 0.0  
Snow Depth 0.00 in    
Sea Level Pressure  
Sea Level Pressure 30.05 in    
Wind  
Wind Speed 3 mph (NNW)    
Max Wind Speed 9 mph    
Max Gust Speed 14 mph    
Visibility 10 miles    
Events      
T = Trace of Precipitation, MM = Missing Value Source: NWS Daily Summary

Daily Weather History Graph

Daily Weather History Graph

Search for Another Location

Airport or City:

Trip Planner

Search our weather history database for the weather conditions in past years. The results will help you decide how hot, cold, wet, or windy it might be!

Date:

Astronomy

Jul. 03, 2013 Rise Set
Actual Time 5:32 AM CDT 8:33 PM CDT
Civil Twilight 4:59 AM CDT 9:06 PM CDT
Nautical Twilight 4:17 AM CDT 9:48 PM CDT
Astronomical Twilight 3:28 AM CDT 10:37 PM CDT
Moon 2:11 AM CDT (7/3) 4:43 PM CDT (7/3)
Length of Visible Light 16h 06m
Length of Day
15h 00m
Waning Crescent, 18% of the Moon is Illuminated
Jul 3
Waning Crescent
Jul 8
New
Jul 15
First Quarter
Jul 22
Full
Jul 29
Last Quarter

Hourly Weather History & Observations

Time (CDT) Temp. Dew Point Humidity Pressure Visibility Wind Dir Wind Speed Gust Speed Precip Events Conditions
12:54 AM 62.1 °F 54.0 °F 75% 30.05 in 10.0 mi Calm Calm - N/A   Partly Cloudy
1:54 AM 60.1 °F 54.0 °F 80% 30.04 in 10.0 mi Calm Calm - N/A   Partly Cloudy
2:54 AM 59.0 °F 54.0 °F 83% 30.03 in 10.0 mi North 3.5 mph - N/A   Clear
3:54 AM 59.0 °F 54.0 °F 83% 30.03 in 10.0 mi Calm Calm - N/A   Clear
4:54 AM 59.0 °F 54.0 °F 83% 30.04 in 10.0 mi North 3.5 mph - N/A   Clear
5:54 AM 59.0 °F 54.0 °F 83% 30.05 in 9.0 mi NNW 3.5 mph - N/A   Clear
6:54 AM 60.1 °F 54.0 °F 80% 30.06 in 9.0 mi Calm Calm - N/A   Clear
7:54 AM 62.1 °F 55.0 °F 78% 30.07 in 10.0 mi North 3.5 mph - N/A   Clear
8:54 AM 64.9 °F 55.0 °F 70% 30.08 in 10.0 mi Variable 4.6 mph - N/A   Clear
9:54 AM 68.0 °F 55.9 °F 65% 30.08 in 10.0 mi NE 5.8 mph - N/A   Clear
10:54 AM 71.1 °F 55.0 °F 57% 30.08 in 10.0 mi WNW 5.8 mph - N/A   Clear
11:54 AM 73.0 °F 55.0 °F 53% 30.08 in 10.0 mi Variable 5.8 mph - N/A   Clear
12:54 PM 73.9 °F 54.0 °F 50% 30.06 in 10.0 mi Variable 5.8 mph - N/A   Clear
1:54 PM 75.9 °F 51.1 °F 42% 30.06 in 10.0 mi Variable 6.9 mph - N/A   Clear
2:54 PM 77.0 °F 48.9 °F 37% 30.06 in 10.0 mi North 5.8 mph - N/A   Clear
3:54 PM 78.1 °F 48.9 °F 36% 30.04 in 10.0 mi Calm Calm - N/A   Clear
4:54 PM 77.0 °F 50.0 °F 39% 30.04 in 10.0 mi SSW 5.8 mph - N/A   Unknown
5:54 PM 78.1 °F 50.0 °F 37% 30.02 in 10.0 mi Variable 4.6 mph - N/A   Clear
6:54 PM 77.0 °F 51.1 °F 40% 30.02 in 10.0 mi WNW 4.6 mph - N/A   Clear
7:54 PM 75.0 °F 54.0 °F 48% 30.03 in 10.0 mi Calm Calm - N/A   Clear
8:54 PM 70.0 °F 55.0 °F 59% 30.04 in 9.0 mi Calm Calm - N/A   Clear
9:54 PM 66.0 °F 55.0 °F 68% 30.06 in 10.0 mi Calm Calm - N/A   Clear
10:54 PM 64.0 °F 55.0 °F 73% 30.06 in 10.0 mi Calm Calm - N/A   Clear
11:54 PM 64.0 °F 55.9 °F 75% 30.07 in 10.0 mi Calm Calm - N/A   Scattered Clouds